owner,sensor,date,latitude,longitude,vertical_datum,sea_water_practical_salinity,qcFlag 
DISL,ioos:station:DISL:DISL:1,2008-08-01T00:00:00Z,30.2513,-88.0778,5.646,30.29,1111122 
DISL,ioos:station:DISL:DISL:1,2008-08-01T00:30:00Z,30.2513,-88.0778,5.486,30.37,1111122 
DISL,ioos:station:DISL:DISL:1,2008-08-01T01:00:00Z,30.2513,-88.0778,5.441,30.57,1111122 
DISL,ioos:station:DISL:DISL:1,2008-08-01T01:30:00Z,30.2513,-88.0778,5.367,28.92,1111122 
DISL,ioos:station:DISL:DISL:1,2008-08-01T02:00:00Z,30.2513,-88.0778,5.358,30.32,1111122 
DISL,ioos:station:DISL:DISL:1,2008-08-01T02:30:00Z,30.2513,-88.0778,5.423,30.39,1111122 
DISL,ioos:station:DISL:DISL:1,2008-08-01T03:00:00Z,30.2513,-88.0778,5.399,30.72,1111122 
DISL,ioos:station:DISL:DISL:1,2008-08-01T03:30:00Z,30.2513,-88.0778,5.407,29.58,1111122 
DISL,ioos:station:DISL:DISL:1,2008-08-01T04:00:00Z,30.2513,-88.0778,5.429,29.28,1111122 
DISL,ioos:station:DISL:DISL:1,2008-08-01T04:30:00Z,30.2513,-88.0778,5.451,28.32,1111122 
DISL,ioos:station:DISL:DISL:1,2008-08-01T05:00:00Z,30.2513,-88.0778,5.481,28.38,1111122 
DISL,ioos:station:DISL:DISL:1,2008-08-01T05:30:00Z,30.2513,-88.0778,5.528,28.83,1111122 
DISL,ioos:station:DISL:DISL:1,2008-08-01T06:00:00Z,30.2513,-88.0778,5.536,29.21,1111122 
DISL,ioos:station:DISL:DISL:1,2008-08-01T06:30:00Z,30.2513,-88.0778,5.566,29.24,1111122 
DISL,ioos:station:DISL:DISL:1,2008-08-01T07:00:00Z,30.2513,-88.0778,5.661,29.44,1111122 
DISL,ioos:station:DISL:DISL:1,2008-08-01T07:30:00Z,30.2513,-88.0778,5.696,29.84,1111122 
DISL,ioos:station:DISL:DISL:1,2008-08-01T08:00:00Z,30.2513,-88.0778,5.765,29.72,1111122 
DISL,ioos:station:DISL:DISL:1,2008-08-01T08:30:00Z,30.2513,-88.0778,5.83,29.72,1111122 
DISL,ioos:station:DISL:DISL:1,2008-08-01T09:00:00Z,30.2513,-88.0778,5.931,29.43,1111122 
DISL,ioos:station:DISL:DISL:1,2008-08-01T09:30:00Z,30.2513,-88.0778,6.066,28.87,1111122 
DISL,ioos:station:DISL:DISL:1,2008-08-01T10:00:00Z,30.2513,-88.0778,6.168,29.09,1111122 
DISL,ioos:station:DISL:DISL:1,2008-08-01T10:30:00Z,30.2513,-88.0778,6.309,28.96,1111122 
DISL,ioos:station:DISL:DISL:1,2008-08-01T11:00:00Z,30.2513,-88.0778,6.378,28.59,1111122 
DISL,ioos:station:DISL:DISL:1,2008-08-01T11:30:00Z,30.2513,-88.0778,6.492,28.47,1111122 
DISL,ioos:station:DISL:DISL:1,2008-08-01T12:00:00Z,30.2513,-88.0778,6.552,28.55,1111122 
DISL,ioos:station:DISL:DISL:1,2008-08-01T12:30:00Z,30.2513,-88.0778,6.683,28.52,1111122 
DISL,ioos:station:DISL:DISL:1,2008-08-01T13:00:00Z,30.2513,-88.0778,6.816,28.51,1111122 
DISL,ioos:station:DISL:DISL:1,2008-08-01T13:30:00Z,30.2513,-88.0778,6.892,28.56,1111122 
DISL,ioos:station:DISL:DISL:1,2008-08-01T14:00:00Z,30.2513,-88.0778,6.996,28.65,1111122 
DISL,ioos:station:DISL:DISL:1,2008-08-01T14:30:00Z,30.2513,-88.0778,6.981,29.38,1111122 
DISL,ioos:station:DISL:DISL:1,2008-08-01T15:00:00Z,30.2513,-88.0778,7.03,29.47,1111122 
DISL,ioos:station:DISL:DISL:1,2008-08-01T15:30:00Z,30.2513,-88.0778,7.06,28.24,1111122 
DISL,ioos:station:DISL:DISL:1,2008-08-01T16:00:00Z,30.2513,-88.0778,7.05,29.63,1111122 
DISL,ioos:station:DISL:DISL:1,2008-08-01T16:30:00Z,30.2513,-88.0778,6.919,29.78,1111122 
DISL,ioos:station:DISL:DISL:1,2008-08-01T17:00:00Z,30.2513,-88.0778,6.946,28.41,1111122 
DISL,ioos:station:DISL:DISL:1,2008-08-01T17:30:00Z,30.2513,-88.0778,6.908,28.5,1111122 
DISL,ioos:station:DISL:DISL:1,2008-08-01T18:00:00Z,30.2513,-88.0778,6.893,28.44,1111122 
DISL,ioos:station:DISL:DISL:1,2008-08-01T18:30:00Z,30.2513,-88.0778,6.734,28.43,1111122 
DISL,ioos:station:DISL:DISL:1,2008-08-01T19:00:00Z,30.2513,-88.0778,6.599,28.9,1111122 
DISL,ioos:station:DISL:DISL:1,2008-08-01T19:30:00Z,30.2513,-88.0778,6.533,28.75,1111122 
DISL,ioos:station:DISL:DISL:1,2008-08-01T20:00:00Z,30.2513,-88.0778,6.488,28.13,1111122 
DISL,ioos:station:DISL:DISL:1,2008-08-01T20:30:00Z,30.2513,-88.0778,6.511,28.13,1111122 
DISL,ioos:station:DISL:DISL:1,2008-08-01T21:00:00Z,30.2513,-88.0778,6.413,27.86,1111122 
DISL,ioos:station:DISL:DISL:1,2008-08-01T21:30:00Z,30.2513,-88.0778,6.218,27.88,1111122 
DISL,ioos:station:DISL:DISL:1,2008-08-01T22:00:00Z,30.2513,-88.0778,6.113,29.24,1111122 
DISL,ioos:station:DISL:DISL:1,2008-08-01T22:30:00Z,30.2513,-88.0778,5.937,29.2,1111122 
DISL,ioos:station:DISL:DISL:1,2008-08-01T23:00:00Z,30.2513,-88.0778,5.946,29.15,1111122 
DISL,ioos:station:DISL:DISL:1,2008-08-01T23:30:00Z,30.2513,-88.0778,5.842,27.57,1111122 
DISL,ioos:station:DISL:DISL:1,2008-08-02T00:00:00Z,30.2513,-88.0778,5.77,27.82,1111122 
DISL,ioos:station:DISL:DISL:1,2008-08-02T00:30:00Z,30.2513,-88.0778,5.669,29.11,1111122 
DISL,ioos:station:DISL:DISL:1,2008-08-02T01:00:00Z,30.2513,-88.0778,5.576,27.15,1111122 
DISL,ioos:station:DISL:DISL:1,2008-08-02T01:30:00Z,30.2513,-88.0778,5.517,28.67,1111122 
DISL,ioos:station:DISL:DISL:1,2008-08-02T02:00:00Z,30.2513,-88.0778,5.392,29.46,1111122 
DISL,ioos:station:DISL:DISL:1,2008-08-02T02:30:00Z,30.2513,-88.0778,5.392,29.66,1111122 
DISL,ioos:station:DISL:DISL:1,2008-08-02T03:00:00Z,30.2513,-88.0778,5.328,28.93,1111122 
DISL,ioos:station:DISL:DISL:1,2008-08-02T03:30:00Z,30.2513,-88.0778,5.295,29.93,1111122 
DISL,ioos:station:DISL:DISL:1,2008-08-02T04:00:00Z,30.2513,-88.0778,5.304,30.01,1111122 
DISL,ioos:station:DISL:DISL:1,2008-08-02T04:30:00Z,30.2513,-88.0778,5.323,28.5,1111122 
DISL,ioos:station:DISL:DISL:1,2008-08-02T05:00:00Z,30.2513,-88.0778,5.32,27.94,1111122 
DISL,ioos:station:DISL:DISL:1,2008-08-02T05:30:00Z,30.2513,-88.0778,5.376,27.82,1111122 
DISL,ioos:station:DISL:DISL:1,2008-08-02T06:00:00Z,30.2513,-88.0778,5.423,28.17,1111122 
DISL,ioos:station:DISL:DISL:1,2008-08-02T06:30:00Z,30.2513,-88.0778,5.433,28.44,1111122 
DISL,ioos:station:DISL:DISL:1,2008-08-02T07:00:00Z,30.2513,-88.0778,5.428,28.6,1111122 
DISL,ioos:station:DISL:DISL:1,2008-08-02T07:30:00Z,30.2513,-88.0778,5.45,28.84,1111122 
DISL,ioos:station:DISL:DISL:1,2008-08-02T08:00:00Z,30.2513,-88.0778,5.548,29.42,1111122 
DISL,ioos:station:DISL:DISL:1,2008-08-02T08:30:00Z,30.2513,-88.0778,5.622,29.53,1111122 
DISL,ioos:station:DISL:DISL:1,2008-08-02T09:00:00Z,30.2513,-88.0778,5.677,29.54,1111122 
DISL,ioos:station:DISL:DISL:1,2008-08-02T09:30:00Z,30.2513,-88.0778,5.697,29.37,1111122 
DISL,ioos:station:DISL:DISL:1,2008-08-02T10:00:00Z,30.2513,-88.0778,5.811,29.18,1111122 
DISL,ioos:station:DISL:DISL:1,2008-08-02T10:30:00Z,30.2513,-88.0778,5.906,29.2,1111122 
DISL,ioos:station:DISL:DISL:1,2008-08-02T11:00:00Z,30.2513,-88.0778,5.969,27.8,1111122 
DISL,ioos:station:DISL:DISL:1,2008-08-02T11:30:00Z,30.2513,-88.0778,6.058,28.2,1111122 
DISL,ioos:station:DISL:DISL:1,2008-08-02T12:00:00Z,30.2513,-88.0778,6.217,28.41,1111122 
DISL,ioos:station:DISL:DISL:1,2008-08-02T12:30:00Z,30.2513,-88.0778,6.307,27.56,1111122 
DISL,ioos:station:DISL:DISL:1,2008-08-02T13:00:00Z,30.2513,-88.0778,6.412,27.79,1111122 
DISL,ioos:station:DISL:DISL:1,2008-08-02T13:30:00Z,30.2513,-88.0778,6.496,26.97,1111122 
DISL,ioos:station:DISL:DISL:1,2008-08-02T14:00:00Z,30.2513,-88.0778,6.504,28.15,1111122 
DISL,ioos:station:DISL:DISL:1,2008-08-02T14:30:00Z,30.2513,-88.0778,6.615,27.34,1111122 
DISL,ioos:station:DISL:DISL:1,2008-08-02T15:00:00Z,30.2513,-88.0778,6.676,27.3,1111122 
DISL,ioos:station:DISL:DISL:1,2008-08-02T15:30:00Z,30.2513,-88.0778,6.665,27.48,1111122 
DISL,ioos:station:DISL:DISL:1,2008-08-02T16:00:00Z,30.2513,-88.0778,6.783,26.58,1111122 
DISL,ioos:station:DISL:DISL:1,2008-08-02T16:30:00Z,30.2513,-88.0778,6.733,29.15,1111122 
DISL,ioos:station:DISL:DISL:1,2008-08-02T17:00:00Z,30.2513,-88.0778,6.734,29.48,1111122 
DISL,ioos:station:DISL:DISL:1,2008-08-02T17:30:00Z,30.2513,-88.0778,6.712,29.48,1111122 
DISL,ioos:station:DISL:DISL:1,2008-08-02T18:00:00Z,30.2513,-88.0778,6.756,28.24,1111122 
DISL,ioos:station:DISL:DISL:1,2008-08-02T18:30:00Z,30.2513,-88.0778,6.69,27.7,1111122 
DISL,ioos:station:DISL:DISL:1,2008-08-02T19:00:00Z,30.2513,-88.0778,6.718,28.17,1111122 
DISL,ioos:station:DISL:DISL:1,2008-08-02T19:30:00Z,30.2513,-88.0778,6.588,27.87,1111122 
DISL,ioos:station:DISL:DISL:1,2008-08-02T20:00:00Z,30.2513,-88.0778,6.486,28.81,1111122 
DISL,ioos:station:DISL:DISL:1,2008-08-02T20:30:00Z,30.2513,-88.0778,6.348,27.13,1111122 
DISL,ioos:station:DISL:DISL:1,2008-08-02T21:00:00Z,30.2513,-88.0778,6.273,27.78,1111122 
DISL,ioos:station:DISL:DISL:1,2008-08-02T21:30:00Z,30.2513,-88.0778,6.251,28.94,1111122 
DISL,ioos:station:DISL:DISL:1,2008-08-02T22:00:00Z,30.2513,-88.0778,6.153,29.22,1111122 
DISL,ioos:station:DISL:DISL:1,2008-08-02T22:30:00Z,30.2513,-88.0778,6.015,29.24,1111122 
DISL,ioos:station:DISL:DISL:1,2008-08-02T23:00:00Z,30.2513,-88.0778,5.917,28.77,1111122 
DISL,ioos:station:DISL:DISL:1,2008-08-02T23:30:00Z,30.2513,-88.0778,5.861,28.7,1111122 
DISL,ioos:station:DISL:DISL:1,2008-08-03T00:00:00Z,30.2513,-88.0778,5.993,28.15,1111122 
DISL,ioos:station:DISL:DISL:1,2008-08-03T00:30:00Z,30.2513,-88.0778,5.744,28.98,1111122 
DISL,ioos:station:DISL:DISL:1,2008-08-03T01:00:00Z,30.2513,-88.0778,5.715,29.2,1111122 
DISL,ioos:station:DISL:DISL:1,2008-08-03T01:30:00Z,30.2513,-88.0778,5.699,29.35,1111122 
DISL,ioos:station:DISL:DISL:1,2008-08-03T02:00:00Z,30.2513,-88.0778,5.64,29.64,1111122 
DISL,ioos:station:DISL:DISL:1,2008-08-03T02:30:00Z,30.2513,-88.0778,5.585,29.61,1111122 
DISL,ioos:station:DISL:DISL:1,2008-08-03T03:00:00Z,30.2513,-88.0778,5.579,29.11,1111122 
DISL,ioos:station:DISL:DISL:1,2008-08-03T03:30:00Z,30.2513,-88.0778,5.57,28.74,1111122 
DISL,ioos:station:DISL:DISL:1,2008-08-03T04:00:00Z,30.2513,-88.0778,5.58,28.78,1111122 
DISL,ioos:station:DISL:DISL:1,2008-08-03T04:30:00Z,30.2513,-88.0778,5.556,29.18,1111122 
DISL,ioos:station:DISL:DISL:1,2008-08-03T05:00:00Z,30.2513,-88.0778,5.606,29.28,1111122 
DISL,ioos:station:DISL:DISL:1,2008-08-03T05:30:00Z,30.2513,-88.0778,5.61,29.08,1111122 
DISL,ioos:station:DISL:DISL:1,2008-08-03T06:00:00Z,30.2513,-88.0778,5.713,28.82,1111122 
DISL,ioos:station:DISL:DISL:1,2008-08-03T06:30:00Z,30.2513,-88.0778,5.706,29.13,1111122 
DISL,ioos:station:DISL:DISL:1,2008-08-03T07:00:00Z,30.2513,-88.0778,5.816,29.03,1111122 
DISL,ioos:station:DISL:DISL:1,2008-08-03T07:30:00Z,30.2513,-88.0778,5.807,29.04,1111122 
DISL,ioos:station:DISL:DISL:1,2008-08-03T08:00:00Z,30.2513,-88.0778,5.864,29.26,1111122 
DISL,ioos:station:DISL:DISL:1,2008-08-03T08:30:00Z,30.2513,-88.0778,5.915,28.31,1111122 
DISL,ioos:station:DISL:DISL:1,2008-08-03T09:00:00Z,30.2513,-88.0778,5.932,29.07,1111122 
DISL,ioos:station:DISL:DISL:1,2008-08-03T09:30:00Z,30.2513,-88.0778,5.987,29.03,1111122 
DISL,ioos:station:DISL:DISL:1,2008-08-03T10:00:00Z,30.2513,-88.0778,6.035,28.81,1111122 
DISL,ioos:station:DISL:DISL:1,2008-08-03T10:30:00Z,30.2513,-88.0778,6.114,28.17,1111122 
DISL,ioos:station:DISL:DISL:1,2008-08-03T11:00:00Z,30.2513,-88.0778,6.166,27.56,1111122 
DISL,ioos:station:DISL:DISL:1,2008-08-03T11:30:00Z,30.2513,-88.0778,6.23,28.94,1111122 
DISL,ioos:station:DISL:DISL:1,2008-08-03T12:00:00Z,30.2513,-88.0778,6.274,28.5,1111122 
DISL,ioos:station:DISL:DISL:1,2008-08-03T12:30:00Z,30.2513,-88.0778,6.418,28.9,1111122 
DISL,ioos:station:DISL:DISL:1,2008-08-03T13:00:00Z,30.2513,-88.0778,6.418,28.84,1111122 
DISL,ioos:station:DISL:DISL:1,2008-08-03T13:30:00Z,30.2513,-88.0778,6.539,28.9,1111122 
DISL,ioos:station:DISL:DISL:1,2008-08-03T14:00:00Z,30.2513,-88.0778,6.571,28.84,1111122 
DISL,ioos:station:DISL:DISL:1,2008-08-03T14:30:00Z,30.2513,-88.0778,6.721,28.24,1111122 
DISL,ioos:station:DISL:DISL:1,2008-08-03T15:00:00Z,30.2513,-88.0778,6.79,28.9,1111122 
DISL,ioos:station:DISL:DISL:1,2008-08-03T15:30:00Z,30.2513,-88.0778,6.802,28.91,1111122 
DISL,ioos:station:DISL:DISL:1,2008-08-03T16:00:00Z,30.2513,-88.0778,6.784,30.37,1111122 
DISL,ioos:station:DISL:DISL:1,2008-08-03T16:30:00Z,30.2513,-88.0778,6.785,29.94,1111122 
DISL,ioos:station:DISL:DISL:1,2008-08-03T17:00:00Z,30.2513,-88.0778,6.841,31.12,1111122 
DISL,ioos:station:DISL:DISL:1,2008-08-03T17:30:00Z,30.2513,-88.0778,6.827,30.73,1111122 
DISL,ioos:station:DISL:DISL:1,2008-08-03T18:00:00Z,30.2513,-88.0778,6.846,30.35,1111122 
DISL,ioos:station:DISL:DISL:1,2008-08-03T18:30:00Z,30.2513,-88.0778,6.87,30.23,1111122 
DISL,ioos:station:DISL:DISL:1,2008-08-03T19:00:00Z,30.2513,-88.0778,6.811,30.3,1111122 
DISL,ioos:station:DISL:DISL:1,2008-08-03T19:30:00Z,30.2513,-88.0778,6.766,30.48,1111122 
DISL,ioos:station:DISL:DISL:1,2008-08-03T20:00:00Z,30.2513,-88.0778,6.705,30.31,1111122 
DISL,ioos:station:DISL:DISL:1,2008-08-03T20:30:00Z,30.2513,-88.0778,6.713,31.89,1111122 
DISL,ioos:station:DISL:DISL:1,2008-08-03T21:00:00Z,30.2513,-88.0778,6.616,31.06,1111122 
DISL,ioos:station:DISL:DISL:1,2008-08-03T21:30:00Z,30.2513,-88.0778,6.542,28.64,1111122 
DISL,ioos:station:DISL:DISL:1,2008-08-03T22:00:00Z,30.2513,-88.0778,6.515,30.13,1111122 
DISL,ioos:station:DISL:DISL:1,2008-08-03T22:30:00Z,30.2513,-88.0778,6.454,29.73,1111122 
DISL,ioos:station:DISL:DISL:1,2008-08-03T23:00:00Z,30.2513,-88.0778,6.352,29.54,1111122 
DISL,ioos:station:DISL:DISL:1,2008-08-03T23:30:00Z,30.2513,-88.0778,6.333,29.07,1111122 
DISL,ioos:station:DISL:DISL:1,2008-08-04T00:00:00Z,30.2513,-88.0778,6.285,28.95,1111122 
DISL,ioos:station:DISL:DISL:1,2008-08-04T00:30:00Z,30.2513,-88.0778,6.218,28.89,1111122 
DISL,ioos:station:DISL:DISL:1,2008-08-04T01:00:00Z,30.2513,-88.0778,6.177,28.86,1111122 
DISL,ioos:station:DISL:DISL:1,2008-08-04T01:30:00Z,30.2513,-88.0778,6.169,28.79,1111122 
DISL,ioos:station:DISL:DISL:1,2008-08-04T02:00:00Z,30.2513,-88.0778,6.123,28.81,1111122 
DISL,ioos:station:DISL:DISL:1,2008-08-04T02:30:00Z,30.2513,-88.0778,6.127,28.98,1111122 
DISL,ioos:station:DISL:DISL:1,2008-08-04T03:00:00Z,30.2513,-88.0778,6.068,29.13,1111122 
DISL,ioos:station:DISL:DISL:1,2008-08-04T03:30:00Z,30.2513,-88.0778,6.071,29.44,1111122 
DISL,ioos:station:DISL:DISL:1,2008-08-04T04:00:00Z,30.2513,-88.0778,6.069,29.6,1111122 
DISL,ioos:station:DISL:DISL:1,2008-08-04T04:30:00Z,30.2513,-88.0778,6.056,29.75,1111122 
DISL,ioos:station:DISL:DISL:1,2008-08-04T05:00:00Z,30.2513,-88.0778,6.08,29.74,1111122 
DISL,ioos:station:DISL:DISL:1,2008-08-04T05:30:00Z,30.2513,-88.0778,6.085,30.18,1111122 
DISL,ioos:station:DISL:DISL:1,2008-08-04T06:00:00Z,30.2513,-88.0778,6.157,30.34,1111122 
DISL,ioos:station:DISL:DISL:1,2008-08-04T06:30:00Z,30.2513,-88.0778,6.124,30.48,1111122 
DISL,ioos:station:DISL:DISL:1,2008-08-04T07:00:00Z,30.2513,-88.0778,6.203,30.71,1111122 
DISL,ioos:station:DISL:DISL:1,2008-08-04T07:30:00Z,30.2513,-88.0778,6.187,30.75,1111122 
DISL,ioos:station:DISL:DISL:1,2008-08-04T08:00:00Z,30.2513,-88.0778,6.215,31.02,1111122 
DISL,ioos:station:DISL:DISL:1,2008-08-04T08:30:00Z,30.2513,-88.0778,6.247,30.94,1111122 
DISL,ioos:station:DISL:DISL:1,2008-08-04T09:00:00Z,30.2513,-88.0778,6.279,30.93,1111122 
DISL,ioos:station:DISL:DISL:1,2008-08-04T09:30:00Z,30.2513,-88.0778,6.294,31.23,1111122 
DISL,ioos:station:DISL:DISL:1,2008-08-04T10:00:00Z,30.2513,-88.0778,6.24,31.26,1111122 
DISL,ioos:station:DISL:DISL:1,2008-08-04T10:30:00Z,30.2513,-88.0778,6.307,31.28,1111122 
DISL,ioos:station:DISL:DISL:1,2008-08-04T11:00:00Z,30.2513,-88.0778,6.433,31.38,1111122 
DISL,ioos:station:DISL:DISL:1,2008-08-04T11:30:00Z,30.2513,-88.0778,6.409,31.57,1111122 
DISL,ioos:station:DISL:DISL:1,2008-08-04T12:00:00Z,30.2513,-88.0778,6.453,31.32,1111122 
DISL,ioos:station:DISL:DISL:1,2008-08-04T12:30:00Z,30.2513,-88.0778,6.422,29.19,1111122 
DISL,ioos:station:DISL:DISL:1,2008-08-04T13:00:00Z,30.2513,-88.0778,6.503,30.0,1111122 
DISL,ioos:station:DISL:DISL:1,2008-08-04T13:30:00Z,30.2513,-88.0778,6.549,29.47,1111122 
DISL,ioos:station:DISL:DISL:1,2008-08-04T14:00:00Z,30.2513,-88.0778,6.576,29.38,1111122 
DISL,ioos:station:DISL:DISL:1,2008-08-04T14:30:00Z,30.2513,-88.0778,6.62,30.07,1111122 
DISL,ioos:station:DISL:DISL:1,2008-08-04T15:00:00Z,30.2513,-88.0778,6.651,30.61,1111122 
DISL,ioos:station:DISL:DISL:1,2008-08-04T15:30:00Z,30.2513,-88.0778,6.649,30.23,1111122 
DISL,ioos:station:DISL:DISL:1,2008-08-04T16:00:00Z,30.2513,-88.0778,6.789,30.4,1111122 
DISL,ioos:station:DISL:DISL:1,2008-08-04T16:30:00Z,30.2513,-88.0778,6.579,30.45,1111122 
DISL,ioos:station:DISL:DISL:1,2008-08-04T17:00:00Z,30.2513,-88.0778,6.707,30.08,1111122 
DISL,ioos:station:DISL:DISL:1,2008-08-04T17:30:00Z,30.2513,-88.0778,6.639,29.7,1111122 
DISL,ioos:station:DISL:DISL:1,2008-08-04T18:00:00Z,30.2513,-88.0778,6.593,29.69,1111122 
DISL,ioos:station:DISL:DISL:1,2008-08-04T18:30:00Z,30.2513,-88.0778,6.608,30.3,1111122 
DISL,ioos:station:DISL:DISL:1,2008-08-04T19:00:00Z,30.2513,-88.0778,6.607,29.77,1111122 
DISL,ioos:station:DISL:DISL:1,2008-08-04T19:30:00Z,30.2513,-88.0778,6.594,29.76,1111122 
DISL,ioos:station:DISL:DISL:1,2008-08-04T20:00:00Z,30.2513,-88.0778,6.619,29.8,1111122 
DISL,ioos:station:DISL:DISL:1,2008-08-04T20:30:00Z,30.2513,-88.0778,6.591,29.8,1111122 
DISL,ioos:station:DISL:DISL:1,2008-08-04T21:00:00Z,30.2513,-88.0778,6.59,29.35,1111122 
DISL,ioos:station:DISL:DISL:1,2008-08-04T21:30:00Z,30.2513,-88.0778,6.532,30.45,1111122 
DISL,ioos:station:DISL:DISL:1,2008-08-04T22:00:00Z,30.2513,-88.0778,6.465,29.77,1111122 
DISL,ioos:station:DISL:DISL:1,2008-08-04T22:30:00Z,30.2513,-88.0778,6.388,29.97,1111122 
DISL,ioos:station:DISL:DISL:1,2008-08-04T23:00:00Z,30.2513,-88.0778,6.324,29.48,1111122 
DISL,ioos:station:DISL:DISL:1,2008-08-04T23:30:00Z,30.2513,-88.0778,6.293,29.03,1111122 
DISL,ioos:station:DISL:DISL:1,2008-08-05T00:00:00Z,30.2513,-88.0778,6.298,28.96,1111122 
DISL,ioos:station:DISL:DISL:1,2008-08-05T00:30:00Z,30.2513,-88.0778,6.278,28.32,1111122 
DISL,ioos:station:DISL:DISL:1,2008-08-05T01:00:00Z,30.2513,-88.0778,6.256,28.22,1111122 
DISL,ioos:station:DISL:DISL:1,2008-08-05T01:30:00Z,30.2513,-88.0778,6.343,28.3,1111122 
DISL,ioos:station:DISL:DISL:1,2008-08-05T02:00:00Z,30.2513,-88.0778,6.175,30.15,1111122 
DISL,ioos:station:DISL:DISL:1,2008-08-05T02:30:00Z,30.2513,-88.0778,6.115,29.89,1111122 
DISL,ioos:station:DISL:DISL:1,2008-08-05T03:00:00Z,30.2513,-88.0778,6.238,30.23,1111122 
DISL,ioos:station:DISL:DISL:1,2008-08-05T03:30:00Z,30.2513,-88.0778,6.155,30.2,1111122 
DISL,ioos:station:DISL:DISL:1,2008-08-05T04:00:00Z,30.2513,-88.0778,6.198,31.04,1111122 
DISL,ioos:station:DISL:DISL:1,2008-08-05T04:30:00Z,30.2513,-88.0778,6.243,30.97,1111122 
DISL,ioos:station:DISL:DISL:1,2008-08-05T05:00:00Z,30.2513,-88.0778,6.236,31.01,1111122 
DISL,ioos:station:DISL:DISL:1,2008-08-05T05:30:00Z,30.2513,-88.0778,6.303,30.98,1111122 
DISL,ioos:station:DISL:DISL:1,2008-08-05T06:00:00Z,30.2513,-88.0778,6.279,30.9,1111122 
DISL,ioos:station:DISL:DISL:1,2008-08-05T06:30:00Z,30.2513,-88.0778,6.419,30.81,1111122 
DISL,ioos:station:DISL:DISL:1,2008-08-05T07:00:00Z,30.2513,-88.0778,6.422,30.82,1111122 
DISL,ioos:station:DISL:DISL:1,2008-08-05T07:30:00Z,30.2513,-88.0778,6.434,30.1,1111122 
DISL,ioos:station:DISL:DISL:1,2008-08-05T08:00:00Z,30.2513,-88.0778,6.392,29.84,1111122 
DISL,ioos:station:DISL:DISL:1,2008-08-05T08:30:00Z,30.2513,-88.0778,6.476,29.38,1111122 
DISL,ioos:station:DISL:DISL:1,2008-08-05T09:00:00Z,30.2513,-88.0778,6.465,29.62,1111122 
DISL,ioos:station:DISL:DISL:1,2008-08-05T09:30:00Z,30.2513,-88.0778,6.505,29.81,1111122 
DISL,ioos:station:DISL:DISL:1,2008-08-05T10:00:00Z,30.2513,-88.0778,6.438,29.55,1111122 
DISL,ioos:station:DISL:DISL:1,2008-08-05T10:30:00Z,30.2513,-88.0778,6.426,29.85,1111122 
DISL,ioos:station:DISL:DISL:1,2008-08-05T11:00:00Z,30.2513,-88.0778,6.42,30.44,1111122 
DISL,ioos:station:DISL:DISL:1,2008-08-05T11:30:00Z,30.2513,-88.0778,6.386,30.49,1111122 
DISL,ioos:station:DISL:DISL:1,2008-08-05T12:00:00Z,30.2513,-88.0778,6.339,30.08,1111122 
DISL,ioos:station:DISL:DISL:1,2008-08-05T12:30:00Z,30.2513,-88.0778,6.343,29.92,1111122 
DISL,ioos:station:DISL:DISL:1,2008-08-05T13:00:00Z,30.2513,-88.0778,6.335,29.59,1111122 
DISL,ioos:station:DISL:DISL:1,2008-08-05T13:30:00Z,30.2513,-88.0778,6.312,29.48,1111122 
DISL,ioos:station:DISL:DISL:1,2008-08-05T14:00:00Z,30.2513,-88.0778,6.294,29.53,1111122 
DISL,ioos:station:DISL:DISL:1,2008-08-05T14:30:00Z,30.2513,-88.0778,6.3,29.28,1111122 
DISL,ioos:station:DISL:DISL:1,2008-08-05T15:00:00Z,30.2513,-88.0778,6.242,28.84,1111122 
DISL,ioos:station:DISL:DISL:1,2008-08-05T15:30:00Z,30.2513,-88.0778,6.225,28.59,1111122 
DISL,ioos:station:DISL:DISL:1,2008-08-05T16:00:00Z,30.2513,-88.0778,6.217,29.35,1111122 
DISL,ioos:station:DISL:DISL:1,2008-08-05T16:30:00Z,30.2513,-88.0778,6.182,29.42,1111122 
DISL,ioos:station:DISL:DISL:1,2008-08-05T17:00:00Z,30.2513,-88.0778,6.251,29.48,1111122 
DISL,ioos:station:DISL:DISL:1,2008-08-05T17:30:00Z,30.2513,-88.0778,6.228,30.0,1111122 
DISL,ioos:station:DISL:DISL:1,2008-08-05T18:00:00Z,30.2513,-88.0778,6.205,29.64,1111122 
DISL,ioos:station:DISL:DISL:1,2008-08-05T18:30:00Z,30.2513,-88.0778,6.187,29.3,1111122 
DISL,ioos:station:DISL:DISL:1,2008-08-05T19:00:00Z,30.2513,-88.0778,6.141,29.29,1111122 
DISL,ioos:station:DISL:DISL:1,2008-08-05T19:30:00Z,30.2513,-88.0778,6.235,29.46,1111122 
DISL,ioos:station:DISL:DISL:1,2008-08-05T20:00:00Z,30.2513,-88.0778,6.222,29.42,1111122 
DISL,ioos:station:DISL:DISL:1,2008-08-05T20:30:00Z,30.2513,-88.0778,6.249,29.27,1111122 
DISL,ioos:station:DISL:DISL:1,2008-08-05T21:00:00Z,30.2513,-88.0778,6.181,29.92,1111122 
DISL,ioos:station:DISL:DISL:1,2008-08-05T21:30:00Z,30.2513,-88.0778,6.209,29.97,1111122 
DISL,ioos:station:DISL:DISL:1,2008-08-05T22:00:00Z,30.2513,-88.0778,6.16,29.51,1111122 
DISL,ioos:station:DISL:DISL:1,2008-08-05T22:30:00Z,30.2513,-88.0778,6.122,28.87,1111122 
DISL,ioos:station:DISL:DISL:1,2008-08-05T23:00:00Z,30.2513,-88.0778,6.124,29.48,1111122 
DISL,ioos:station:DISL:DISL:1,2008-08-05T23:30:00Z,30.2513,-88.0778,6.231,29.59,1111122 
DISL,ioos:station:DISL:DISL:1,2008-08-06T00:00:00Z,30.2513,-88.0778,6.134,29.42,1111122 
DISL,ioos:station:DISL:DISL:1,2008-08-06T00:30:00Z,30.2513,-88.0778,6.097,29.67,1111122 
DISL,ioos:station:DISL:DISL:1,2008-08-06T01:00:00Z,30.2513,-88.0778,6.133,29.58,1111122 
DISL,ioos:station:DISL:DISL:1,2008-08-06T01:30:00Z,30.2513,-88.0778,6.148,29.28,1111122 
DISL,ioos:station:DISL:DISL:1,2008-08-06T02:00:00Z,30.2513,-88.0778,6.244,29.39,1111122 
DISL,ioos:station:DISL:DISL:1,2008-08-06T02:30:00Z,30.2513,-88.0778,6.197,29.44,1111122 
DISL,ioos:station:DISL:DISL:1,2008-08-06T03:00:00Z,30.2513,-88.0778,6.243,29.6,1111122 
DISL,ioos:station:DISL:DISL:1,2008-08-06T03:30:00Z,30.2513,-88.0778,6.286,29.61,1111122 
DISL,ioos:station:DISL:DISL:1,2008-08-06T04:00:00Z,30.2513,-88.0778,6.318,29.61,1111122 
DISL,ioos:station:DISL:DISL:1,2008-08-06T04:30:00Z,30.2513,-88.0778,6.33,29.55,1111122 
DISL,ioos:station:DISL:DISL:1,2008-08-06T05:00:00Z,30.2513,-88.0778,6.353,29.4,1111122 
DISL,ioos:station:DISL:DISL:1,2008-08-06T05:30:00Z,30.2513,-88.0778,6.408,29.36,1111122 
DISL,ioos:station:DISL:DISL:1,2008-08-06T06:00:00Z,30.2513,-88.0778,6.384,29.68,1111122 
DISL,ioos:station:DISL:DISL:1,2008-08-06T06:30:00Z,30.2513,-88.0778,6.429,30.09,1111122 
DISL,ioos:station:DISL:DISL:1,2008-08-06T07:00:00Z,30.2513,-88.0778,6.468,30.27,1111122 
DISL,ioos:station:DISL:DISL:1,2008-08-06T07:30:00Z,30.2513,-88.0778,6.495,30.35,1111122 
DISL,ioos:station:DISL:DISL:1,2008-08-06T08:00:00Z,30.2513,-88.0778,6.494,30.33,1111122 
DISL,ioos:station:DISL:DISL:1,2008-08-06T08:30:00Z,30.2513,-88.0778,6.505,30.47,1111122 
DISL,ioos:station:DISL:DISL:1,2008-08-06T09:00:00Z,30.2513,-88.0778,6.513,30.44,1111122 
DISL,ioos:station:DISL:DISL:1,2008-08-06T09:30:00Z,30.2513,-88.0778,6.494,30.45,1111122 
DISL,ioos:station:DISL:DISL:1,2008-08-06T10:00:00Z,30.2513,-88.0778,6.489,30.47,1111122 
DISL,ioos:station:DISL:DISL:1,2008-08-06T10:30:00Z,30.2513,-88.0778,6.435,30.45,1111122 
DISL,ioos:station:DISL:DISL:1,2008-08-06T11:00:00Z,30.2513,-88.0778,6.486,30.5,1111122 
DISL,ioos:station:DISL:DISL:1,2008-08-06T11:30:00Z,30.2513,-88.0778,6.385,29.7,1111122 
DISL,ioos:station:DISL:DISL:1,2008-08-06T12:00:00Z,30.2513,-88.0778,6.317,30.07,1111122 
DISL,ioos:station:DISL:DISL:1,2008-08-06T12:30:00Z,30.2513,-88.0778,6.246,29.69,1111122 
DISL,ioos:station:DISL:DISL:1,2008-08-06T13:00:00Z,30.2513,-88.0778,6.217,30.09,1111122 
DISL,ioos:station:DISL:DISL:1,2008-08-06T13:30:00Z,30.2513,-88.0778,6.153,29.23,1111122 
DISL,ioos:station:DISL:DISL:1,2008-08-06T14:00:00Z,30.2513,-88.0778,6.133,29.07,1111122 